Flag for South Africa Weather past 2 weeks in Pretoria, South Africa

Now
39 °F

Chilly.


Feels Like: 37 °F
Forecast: 37 / 69 °F
Wind: 3 mph from Southeast

Location: Waterkloof Lmb

Current Time: Jul 2, 2015 at 3:39:53 AM

Latest Report: Jul 2, 2015 at 3:00 AM


Visibility: N/A

Pressure: 30.42 "Hg

Humidity: 87%

Dew point: 36 °F

Location of PretoriaLocation

Historic Weather in Pretoria — Graph

°F

Pretoria temperature yesterday

Maximum temperature yesterday: 66 °F (at 2:00 PM)
Minimum temperature yesterday: 45 °F (at 11:00 PM)
Average temperature yesterday: 53 °F

Past Weeks' High & Low Weather Summary

 TemperatureHumidityPressure
High68 °F (Jun 25, 12:00 PM)100% (Jun 29, 1:00 AM)30.60 "Hg (Jun 29, 1:00 AM)
Low32 °F (Jun 18, 6:00 AM)17% (Jun 18, 3:00 PM)30.07 "Hg (Jun 17, 2:00 AM)
Average51 °F56%30.37 "Hg
* Reported Jun 17 2:00 AM — Jul 2 2:00 AM, Pretoria, Weather by CustomWeather, © 2015

Note: Actual official high and low records may vary slightly from our data, if they occured in-between our weather recording intervals... More about our weather records

Advertising

Pretoria weather history for previous 24 hours

 ConditionsComfort  
Time TempWeatherWind HumidityBarometerVisibility
2:00 AM
Thu, Jul 2
41 °FQuite cool.2 mph81%30.42 "HgN/A
1:00 AM45 °FQuite cool.2 mph76%30.45 "HgN/A
12:00 AM43 °FQuite cool.3 mph81%30.45 "HgN/A
11:00 PM
Wed, Jul 1
45 °FQuite cool.3 mph76%30.45 "HgN/A
10:00 PM46 °FCool.2 mph71%30.45 "HgN/A
9:00 PM48 °FCool.5 mph71%30.45 "HgN/A
8:00 PM50 °FCool.1 mph62%30.42 "HgN/A
7:00 PM54 °FCool.1 mph54%30.42 "HgN/A
6:00 PM54 °FCool.2 mph54%30.39 "HgN/A
5:00 PM61 °FRefreshingly cool.2 mph42%30.36 "HgN/A
4:00 PM66 °FMild.1 mph35%30.39 "HgN/A
3:00 PM64 °FMild.3 mph37%30.39 "HgN/A
2:00 PM66 °FMild.3 mph37%30.39 "HgN/A
1:00 PM63 °FMild.5 mph49%30.42 "HgN/A
12:00 PM63 °FMild.6 mph49%30.42 "HgN/A
11:00 AM59 °FRefreshingly cool.5 mph59%30.45 "HgN/A
10:00 AM55 °FCool.6 mph67%30.45 "HgN/A
9:00 AM52 °FCool.6 mph82%30.45 "HgN/A
8:00 AM48 °FCool.3 mph94%30.42 "HgN/A
7:00 AM46 °FCool.5 mph93%30.42 "HgN/A
6:00 AM46 °FCool.5 mph93%30.39 "HgN/A
5:00 AM46 °FCool.5 mph93%30.39 "HgN/A
4:00 AM46 °FCool.2 mph93%30.39 "HgN/A
3:00 AM48 °FCool.8 mph87%30.39 "HgN/A
Weather by CustomWeather, © 2015

See weather overviewHow to use our weather pages